This is the latest recevied weather packets stored in our database for station/object SV2ASS-2. If no packets are shown the sender has not sent any weather packets the latest 10 day(s).
| Time | Temp. | Humidity | Pressure | Rain* | Wind** | Luminosity | Snow |
|---|---|---|---|---|---|---|---|
| 1778184763 | 15.56° C | 58% | 1021.3 hPa | - | - | - | - |
| 1778183863 | 15.56° C | 58% | 1021.3 hPa | - | - | - | - |
| 1778182963 | 15.56° C | 59% | 1021.5 hPa | - | - | - | - |
| 1778182063 | 16.11° C | 58% | 1021.6 hPa | - | - | - | - |
| 1778181163 | 16.11° C | 58% | 1021.5 hPa | - | - | - | - |
| 1778180263 | 16.67° C | 57% | 1021.2 hPa | - | - | - | - |
| 1778179363 | 16.67° C | 56% | 1020.9 hPa | - | - | - | - |
| 1778178463 | 17.22° C | 56% | 1020.8 hPa | - | - | - | - |
| 1778177562 | 17.78° C | 54% | 1020.7 hPa | - | - | - | - |
| 1778176662 | 18.33° C | 55% | 1020.5 hPa | - | - | - | - |
| 1778175762 | 18.89° C | 56% | 1020.6 hPa | - | - | - | - |
| 1778174862 | 20° C | 54% | 1020.8 hPa | - | - | - | - |
| 1778173961 | 20.56° C | 60% | 1021 hPa | - | - | - | - |
| 1778173061 | 21.11° C | 58% | 1021 hPa | - | - | - | - |
| 1778172161 | 22.22° C | 58% | 1021 hPa | - | - | - | - |
| 1778170361 | 21.67° C | 57% | 1021 hPa | - | - | - | - |
| 1778169461 | 21.67° C | 57% | 1021.1 hPa | - | - | - | - |
| 1778168561 | 21.67° C | 55% | 1021.2 hPa | - | - | - | - |
| 1778167661 | 21.67° C | 56% | 1021.2 hPa | - | - | - | - |
| 1778166761 | 21.67° C | 57% | 1021.4 hPa | - | - | - | - |
| 1778165863 | 21.11° C | 55% | 1021.4 hPa | - | - | - | - |
| 1778164963 | 21.67° C | 58% | 1021.4 hPa | - | - | - | - |
| 1778164063 | 21.67° C | 56% | 1021.4 hPa | - | - | - | - |
| 1778163163 | 21.11° C | 57% | 1021.4 hPa | - | - | - | - |
| 1778162262 | 21.11° C | 57% | 1021.3 hPa | - | - | - | - |
* Rain since midnight (hover to see other rain measurements)
** Current wind speed in m/s (hover to see current wind gust speed)